Location: Carrières
(48.9495°N, 2.0407°E)
Time: 20:23:11
(UTC+00:00)

Transit 2A - Pass Details

Date: 21 April 2024
Orbit: 594 x 957 km, 66.7° (Epoch: 18 May)

Event Time Altitude Azimuth Distance (km) Brightness Sun altitude
Rises 09:24:15 0° 293° (WNW) 2,978 8.6 42.4°
Reaches altitude 10° 09:28:09 10° 327° (NNW) 2,148 8.0 42.9°
Maximum altitude 09:29:52 12° 348° (NNW) 2,074 8.0 43.1°
Drops below altitude 10° 09:31:38 10° 8° (N) 2,229 8.3 43.3°
Sets 09:35:56 0° 41° (NE) 3,260 9.3 43.8°
